Starlink 35092

operational
NORAD ID: 65342 Int'l Des: 2025-189 Owner: SPXS Country: US Constellation: starlink
LEOCIRCULAR

Starlink 35092について

説明を読み込み中...

リアルタイム位置

3D地球を読み込み中...

次回通過

高度履歴

Altitude vs Time

uPlot chart will show altitude changes over time

軌道要素

1 65342U 25189V 26062.64055035 .00026061 00000-0 88834-3 0 9998
2 65342 53.1563 234.6266 0001079 117.4730 242.6380 15.30221879 30099
Epoch: Mar 3, 2026 • Age: 27 hours

現在のステータス

高度 475.6 km
速度 7.63 km/s
衛星直下点 26.89°N, 176.41°W
打ち上げ日 Aug 27, 2025
運用期間 0.5 years
タイプ internet

技術仕様

分類 Payload
質量 575.00 kg
乾燥質量 530.00 kg
総質量 575.00 kg
長さ 0.30 m
直径 4.10 m
スパン 29.00 m
形状 Box + pan
製造者 SPXS
バスタイプ Starlink V2MO
フェーズステータス In Orbit
所有者/国 SPXS/US

大規模コンステレーション

Loading constellations...